,,Stat5,,Stat1,,Stat2,,Stat3,,Stat4,,Wind1,,Wind1,
time,status,PA1M_AVG,status,PR1M_SUM,status,RH1M_AVG,status,SR1M_AVG,status,TA1M_AVG,status,W1dAve1m,status,W1sAve1m,
2001-09-07, 00:00:01,VALID,919.379,VALID,0,VALID,98.2429,VALID,-0.0339617,VALID,20.6728,VALID,23,VALID,0.306949,
2001-09-07, 00:01:00,VALID,919.379,VALID,0,VALID,98.2289,VALID,-0.0169808,VALID,20.6596,VALID,23,VALID,0.325169,
2001-09-07, 00:02:00,VALID,919.392,VALID,0,VALID,98.2594,VALID,-0.0679233,VALID,20.6701,VALID,22,VALID,0.36761,
2001-09-07, 00:03:00,VALID,919.381,VALID,0,VALID,98.2861,VALID,-0.0169808,VALID,20.6696,VALID,22,VALID,0.319511,
2001-09-07, 00:04:00,VALID,919.383,VALID,0,VALID,98.2823,VALID,-0.0509425,VALID,20.6666,VALID,21,VALID,0.402872,
2001-09-07, 00:05:00,VALID,919.38,VALID,0,VALID,98.2938,VALID,-0.0509425,VALID,20.6733,VALID,20,VALID,0.453125,
2001-09-07, 00:06:00,VALID,919.367,VALID,0,VALID,98.2976,VALID,-0.0339617,VALID,20.6661,VALID,20,VALID,0.545922,
2001-09-07, 00:07:00,VALID,919.361,VALID,0,VALID,98.1933,VALID,-0.0339617,VALID,20.6445,VALID,14,VALID,0.769737,
2001-09-07, 00:08:00,VALID,919.353,VALID,0,VALID,98.1272,VALID,-0.0339617,VALID,20.5961,VALID,14,VALID,0.997944,
2001-09-07, 00:09:00,VALID,919.34,VALID,0,VALID,98.1234,VALID,-0.0509425,VALID,20.5665,VALID,13,VALID,1.07402,
2001-09-07, 00:10:00,VALID,919.324,VALID,0,VALID,98.117,VALID,-0.0339617,VALID,20.5538,VALID,8,VALID,0.875206,
2001-09-07, 00:11:00,VALID,919.309,VALID,0,VALID,98.0992,VALID,-0.0339617,VALID,20.5242,VALID,9,VALID,0.905428,
2001-09-07, 00:12:00,VALID,919.289,VALID,0,VALID,98.1183,VALID,-0.0339617,VALID,20.518,VALID,12,VALID,0.81989,
2001-09-07, 00:13:00,VALID,919.266,VALID,0,VALID,98.1463,VALID,0,VALID,20.5148,VALID,12,VALID,0.678385,
2001-09-07, 00:14:00,VALID,919.242,VALID,0.2,VALID,98.1615,VALID,-0.0339617,VALID,20.5148,VALID,12,VALID,0.957031,
2001-09-07, 00:15:00,VALID,919.238,VALID,0,VALID,98.1819,VALID,-0.0509425,VALID,20.5081,VALID,21,VALID,0.786966,
2001-09-07, 00:16:00,VALID,919.223,VALID,0,VALID,98.2289,VALID,0,VALID,20.5177,VALID,5,VALID,0.783784,
2001-09-07, 00:17:00,VALID,919.23,VALID,0,VALID,98.22,VALID,0,VALID,20.525,VALID,10,VALID,0.534539,
2001-09-07, 00:18:00,VALID,919.201,VALID,0,VALID,98.2594,VALID,-0.0509425,VALID,20.5247,VALID,12,VALID,0.31764,
2001-09-07, 00:19:00,VALID,919.172,VALID,0.2,VALID,98.295,VALID,0,VALID,20.5307,VALID,9,VALID,0.0661204,
2001-09-07, 00:20:00,VALID,919.155,VALID,0,VALID,98.3027,VALID,-0.0169808,VALID,20.5411,VALID,18,VALID,0,
2001-09-07, 00:21:00,VALID,919.128,VALID,0,VALID,98.2989,VALID,-0.0339617,VALID,20.5414,VALID,24,VALID,0,
2001-09-07, 00:22:00,VALID,919.091,VALID,0,VALID,98.3014,VALID,-0.0509425,VALID,20.5282,VALID,21,VALID,0,
2001-09-07, 00:23:00,VALID,919.071,VALID,0,VALID,98.337,VALID,-0.0679233,VALID,20.5177,VALID,11,VALID,0,
2001-09-07, 00:24:00,VALID,919.037,VALID,0.2,VALID,98.3548,VALID,-0.0679233,VALID,20.5444,VALID,11,VALID,0.40067,
2001-09-07, 00:25:00,VALID,919.021,VALID,0,VALID,98.3548,VALID,0,VALID,20.5406,VALID,11,VALID,0.608758,
2001-09-07, 00:26:00,VALID,918.996,VALID,0,VALID,98.3332,VALID,-0.0339617,VALID,20.5379,VALID,11,VALID,0.547508,
2001-09-07, 00:27:00,VALID,918.98,VALID,0,VALID,98.3434,VALID,0,VALID,20.5215,VALID,12,VALID,0.383018,
2001-09-07, 00:28:00,VALID,918.989,VALID,0,VALID,98.351,VALID,-0.0339617,VALID,20.5212,VALID,14,VALID,0.42103,
2001-09-07, 00:29:00,VALID,918.993,VALID,0,VALID,98.3751,VALID,-0.0169808,VALID,20.5016,VALID,14,VALID,0.0931641,
2001-09-07, 00:30:00,VALID,919.005,VALID,0,VALID,98.3701,VALID,-0.0509425,VALID,20.5126,VALID,14,VALID,0,
2001-09-07, 00:31:00,VALID,919.004,VALID,0,VALID,98.3497,VALID,-0.0849042,VALID,20.4964,VALID,27,VALID,0.0564236,
2001-09-07, 00:32:00,VALID,918.985,VALID,0,VALID,98.3484,VALID,-0.0679233,VALID,20.4768,VALID,32,VALID,0,
2001-09-07, 00:33:00,VALID,918.957,VALID,0.2,VALID,98.3599,VALID,-0.0849042,VALID,20.4738,VALID,32,VALID,0,
2001-09-07, 00:34:00,VALID,918.932,VALID,0,VALID,98.3879,VALID,-0.0849042,VALID,20.487,VALID,32,VALID,0,
2001-09-07, 00:35:00,VALID,918.917,VALID,0,VALID,98.3802,VALID,-0.0339617,VALID,20.4937,VALID,32,VALID,0,
2001-09-07, 00:36:00,VALID,918.901,VALID,0,VALID,98.3929,VALID,-0.0849042,VALID,20.4775,VALID,32,VALID,0,
2001-09-07, 00:37:00,VALID,918.897,VALID,0,VALID,98.4158,VALID,-0.0509425,VALID,20.487,VALID,32,VALID,0,
2001-09-07, 00:38:00,VALID,918.91,VALID,0,VALID,98.426,VALID,-0.0679233,VALID,20.5061,VALID,32,VALID,0,
2001-09-07, 00:39:00,VALID,918.917,VALID,0,VALID,98.4057,VALID,-0.0679233,VALID,20.5093,VALID,43,VALID,0.312109,
2001-09-07, 00:40:00,VALID,918.939,VALID,0.2,VALID,98.3624,VALID,-0.0509425,VALID,20.4996,VALID,57,VALID,0.60074,
2001-09-07, 00:41:00,VALID,918.954,VALID,0,VALID,98.3205,VALID,-0.0679233,VALID,20.4867,VALID,58,VALID,0.528988,
2001-09-07, 00:42:00,VALID,918.964,VALID,0,VALID,98.2861,VALID,-0.0509425,VALID,20.487,VALID,61,VALID,0.545819,
2001-09-07, 00:43:00,VALID,918.97,VALID,0,VALID,98.2162,VALID,-0.0509425,VALID,20.4579,VALID,75,VALID,0.572049,
2001-09-07, 00:44:00,VALID,918.966,VALID,0,VALID,98.1653,VALID,-0.0679233,VALID,20.4283,VALID,88,VALID,0.498264,
2001-09-07, 00:45:00,VALID,918.963,VALID,0,VALID,98.1742,VALID,-0.0509425,VALID,20.4224,VALID,105,VALID,0.748666,
2001-09-07, 00:46:00,VALID,918.949,VALID,0,VALID,98.2111,VALID,-0.0679233,VALID,20.3963,VALID,114,VALID,0.859586,
2001-09-07, 00:47:00,VALID,918.936,VALID,0,VALID,98.2467,VALID,-0.101885,VALID,20.3866,VALID,115,VALID,0.63528,
2001-09-07, 00:48:00,VALID,918.912,VALID,0,VALID,98.2963,VALID,-0.0679233,VALID,20.393,VALID,131,VALID,0.344161,
2001-09-07, 00:49:00,VALID,918.896,VALID,0,VALID,98.351,VALID,-0.0509425,VALID,20.393,VALID,121,VALID,0.491044,
2001-09-07, 00:50:00,VALID,918.862,VALID,0.2,VALID,98.4158,VALID,-0.0849042,VALID,20.4194,VALID,116,VALID,0.36801,
2001-09-07, 00:51:00,VALID,918.844,VALID,0,VALID,98.4196,VALID,-0.0509425,VALID,20.4124,VALID,126,VALID,0.0655839,
2001-09-07, 00:52:00,VALID,918.832,VALID,0,VALID,98.4489,VALID,-0.0679233,VALID,20.4221,VALID,157,VALID,0.27908,
2001-09-07, 00:53:00,VALID,918.829,VALID,0,VALID,98.4642,VALID,-0.0679233,VALID,20.4253,VALID,160,VALID,0.41723,
2001-09-07, 00:54:00,VALID,918.805,VALID,0,VALID,98.454,VALID,-0.0679233,VALID,20.4293,VALID,159,VALID,0.371429,
2001-09-07, 00:55:00,VALID,918.805,VALID,0,VALID,98.468,VALID,-0.0679233,VALID,20.4288,VALID,157,VALID,0.400288,
2001-09-07, 00:56:00,VALID,918.79,VALID,0,VALID,98.4858,VALID,-0.0509425,VALID,20.4323,VALID,156,VALID,0.268581,
2001-09-07, 00:57:00,VALID,918.778,VALID,0,VALID,98.5188,VALID,-0.0509425,VALID,20.4318,VALID,153,VALID,0.384663,
2001-09-07, 00:58:00,VALID,918.753,VALID,0,VALID,98.5188,VALID,-0.0509425,VALID,20.4348,VALID,152,VALID,0.206081,
2001-09-07, 00:59:00,VALID,918.736,VALID,0,VALID,98.5379,VALID,-0.0509425,VALID,20.4353,VALID,151,VALID,0.239063,
2001-09-07, 01:00:00,VALID,918.704,VALID,0,VALID,98.5697,VALID,-0.0509425,VALID,20.4514,VALID,150,VALID,0,
2001-09-07, 01:01:00,VALID,918.674,VALID,0,VALID,98.5862,VALID,0,VALID,20.4593,VALID,150,VALID,0,
2001-09-07, 01:02:00,VALID,918.656,VALID,0,VALID,98.5989,VALID,0.0679233,VALID,20.4626,VALID,153,VALID,0.000844595,
2001-09-07, 01:03:00,VALID,918.636,VALID,0,VALID,98.5786,VALID,0.0339617,VALID,20.4626,VALID,154,VALID,0,
2001-09-07, 01:04:00,VALID,918.631,VALID,0,VALID,98.571,VALID,0.0169808,VALID,20.4596,VALID,155,VALID,0,
2001-09-07, 01:05:00,VALID,918.617,VALID,0,VALID,98.5824,VALID,0.0509425,VALID,20.4529,VALID,165,VALID,0,
2001-09-07, 01:06:00,VALID,918.605,VALID,0,VALID,98.5875,VALID,0.0509425,VALID,20.4467,VALID,168,VALID,0,
2001-09-07, 01:07:00,VALID,918.598,VALID,0,VALID,98.6091,VALID,0.0339617,VALID,20.4469,VALID,167,VALID,0,
2001-09-07, 01:08:00,VALID,918.592,VALID,0,VALID,98.6307,VALID,0.0169808,VALID,20.4467,VALID,125,VALID,0.191612,
2001-09-07, 01:09:00,VALID,918.598,VALID,0,VALID,98.6269,VALID,0.0509425,VALID,20.4432,VALID,121,VALID,0.376367,
2001-09-07, 01:10:00,VALID,918.61,VALID,0,VALID,98.5837,VALID,0.0849042,VALID,20.4273,VALID,92,VALID,0.342516,
2001-09-07, 01:11:00,VALID,918.626,VALID,0,VALID,98.5989,VALID,0.0849042,VALID,20.4079,VALID,87,VALID,0.0970395,
2001-09-07, 01:12:00,VALID,918.619,VALID,0,VALID,98.6409,VALID,0.0509425,VALID,20.4012,VALID,63,VALID,0,
2001-09-07, 01:13:00,VALID,918.592,VALID,0,VALID,98.6536,VALID,0.0849042,VALID,20.4114,VALID,55,VALID,0,
2001-09-07, 01:14:00,VALID,918.576,VALID,0,VALID,98.6854,VALID,0.0509425,VALID,20.4144,VALID,55,VALID,0,
2001-09-07, 01:15:00,VALID,918.565,VALID,0,VALID,98.707,VALID,0.0169808,VALID,20.4343,VALID,55,VALID,0,
2001-09-07, 01:16:00,VALID,918.544,VALID,0,VALID,98.6905,VALID,-0.0679233,VALID,20.4385,VALID,62,VALID,0.195101,
2001-09-07, 01:17:00,VALID,918.534,VALID,0,VALID,98.6473,VALID,-0.0849042,VALID,20.4196,VALID,95,VALID,0.5919,
2001-09-07, 01:18:00,VALID,918.523,VALID,0,VALID,98.6498,VALID,-0.0849042,VALID,20.3901,VALID,101,VALID,0.509457,
2001-09-07, 01:19:00,VALID,918.481,VALID,0,VALID,98.6841,VALID,-0.0339617,VALID,20.3866,VALID,84,VALID,0.202744,
2001-09-07, 01:20:00,VALID,918.458,VALID,0,VALID,98.6994,VALID,-0.0679233,VALID,20.3866,VALID,83,VALID,0.0129523,
2001-09-07, 01:21:00,VALID,918.415,VALID,0,VALID,98.7172,VALID,-0.0509425,VALID,20.4132,VALID,80,VALID,0,
2001-09-07, 01:22:00,VALID,918.379,VALID,0,VALID,98.7248,VALID,-0.0339617,VALID,20.4062,VALID,80,VALID,0,
2001-09-07, 01:23:00,VALID,918.339,VALID,0,VALID,98.7197,VALID,0,VALID,20.4127,VALID,80,VALID,0.0152027,
2001-09-07, 01:24:00,VALID,918.289,VALID,0,VALID,98.7274,VALID,-0.0169808,VALID,20.4032,VALID,80,VALID,0,
2001-09-07, 01:25:00,VALID,918.25,VALID,0,VALID,98.763,VALID,-0.0509425,VALID,20.4259,VALID,80,VALID,0,
2001-09-07, 01:26:00,VALID,918.231,VALID,0,VALID,98.7579,VALID,-0.0169808,VALID,20.4156,VALID,80,VALID,0,
2001-09-07, 01:27:00,VALID,918.213,VALID,0,VALID,98.7325,VALID,-0.0509425,VALID,20.4189,VALID,145,VALID,0,
2001-09-07, 01:28:00,VALID,918.198,VALID,0,VALID,98.749,VALID,-0.0509425,VALID,20.406,VALID,190,VALID,0,
2001-09-07, 01:29:00,VALID,918.191,VALID,0,VALID,98.7528,VALID,-0.0509425,VALID,20.4129,VALID,190,VALID,0,
2001-09-07, 01:30:00,VALID,918.181,VALID,0,VALID,98.7414,VALID,-0.0679233,VALID,20.3997,VALID,190,VALID,0,
2001-09-07, 01:31:00,VALID,918.18,VALID,0,VALID,98.7477,VALID,-0.0509425,VALID,20.4062,VALID,177,VALID,0,
2001-09-07, 01:32:00,VALID,918.172,VALID,0,VALID,98.7337,VALID,-0.0509425,VALID,20.393,VALID,149,VALID,0,
2001-09-07, 01:33:00,VALID,918.142,VALID,0,VALID,98.7287,VALID,-0.0679233,VALID,20.3903,VALID,136,VALID,0,
2001-09-07, 01:34:00,VALID,918.133,VALID,0,VALID,98.7058,VALID,-0.0849042,VALID,20.3674,VALID,135,VALID,0,
2001-09-07, 01:35:00,VALID,918.105,VALID,0,VALID,98.7121,VALID,-0.0509425,VALID,20.358,VALID,121,VALID,0,
2001-09-07, 01:36:00,VALID,918.071,VALID,0,VALID,98.7388,VALID,-0.0849042,VALID,20.3545,VALID,110,VALID,0,
2001-09-07, 01:37:00,VALID,918.047,VALID,0,VALID,98.7566,VALID,-0.101885,VALID,20.3513,VALID,104,VALID,0,
2001-09-07, 01:38:00,VALID,918.018,VALID,0,VALID,98.7617,VALID,-0.0849042,VALID,20.3481,VALID,104,VALID,0,
2001-09-07, 01:39:00,VALID,917.992,VALID,0,VALID,98.7846,VALID,-0.101885,VALID,20.3645,VALID,104,VALID,0,
2001-09-07, 01:40:00,VALID,917.97,VALID,0,VALID,98.7973,VALID,-0.0509425,VALID,20.368,VALID,104,VALID,0,
2001-09-07, 01:41:00,VALID,917.946,VALID,0,VALID,98.8164,VALID,-0.101885,VALID,20.3804,VALID,84,VALID,0,
2001-09-07, 01:42:00,VALID,917.946,VALID,0,VALID,98.8227,VALID,-0.0509425,VALID,20.3836,VALID,67,VALID,0,
2001-09-07, 01:43:00,VALID,917.936,VALID,0,VALID,98.8189,VALID,-0.0849042,VALID,20.397,VALID,67,VALID,0,
2001-09-07, 01:44:00,VALID,917.938,VALID,0,VALID,98.8049,VALID,-0.0849042,VALID,20.3836,VALID,80,VALID,0,
2001-09-07, 01:45:00,VALID,917.934,VALID,0,VALID,98.7655,VALID,-0.0679233,VALID,20.3572,VALID,103,VALID,0,
2001-09-07, 01:46:00,VALID,917.934,VALID,0,VALID,98.7821,VALID,-0.0169808,VALID,20.3567,VALID,134,VALID,0.0534206,
2001-09-07, 01:47:00,VALID,917.941,VALID,0,VALID,98.8088,VALID,0.0169808,VALID,20.347,VALID,129,VALID,0.400493,
2001-09-07, 01:48:00,VALID,917.932,VALID,0,VALID,98.8113,VALID,0.0169808,VALID,20.3403,VALID,121,VALID,0.125411,
2001-09-07, 01:49:00,VALID,917.929,VALID,0,VALID,98.8304,VALID,0.0169808,VALID,20.3503,VALID,137,VALID,0.185404,
2001-09-07, 01:50:00,VALID,917.933,VALID,0,VALID,98.8355,VALID,0.0169808,VALID,20.3468,VALID,114,VALID,0.293997,
2001-09-07, 01:51:00,VALID,917.929,VALID,0.2,VALID,98.8622,VALID,0.0339617,VALID,20.3629,VALID,82,VALID,0.0637336,
2001-09-07, 01:52:00,VALID,917.939,VALID,0,VALID,98.8685,VALID,0.0339617,VALID,20.3826,VALID,85,VALID,0.208984,
2001-09-07, 01:53:00,VALID,917.947,VALID,0,VALID,98.8558,VALID,0.0679233,VALID,20.3659,VALID,72,VALID,0.284628,
2001-09-07, 01:54:00,VALID,917.956,VALID,0,VALID,98.8329,VALID,0,VALID,20.3498,VALID,81,VALID,0.560491,
2001-09-07, 01:55:00,VALID,917.958,VALID,0,VALID,98.8113,VALID,0.0169808,VALID,20.3379,VALID,86,VALID,0.363898,
2001-09-07, 01:56:00,VALID,917.958,VALID,0,VALID,98.8431,VALID,0.0339617,VALID,20.3306,VALID,61,VALID,0.452492,
2001-09-07, 01:57:00,VALID,917.948,VALID,0,VALID,98.8533,VALID,0.0339617,VALID,20.3172,VALID,90,VALID,0.143092,
2001-09-07, 01:58:00,VALID,917.96,VALID,0,VALID,98.8393,VALID,0,VALID,20.3145,VALID,85,VALID,0.0464527,
2001-09-07, 01:59:00,VALID,917.958,VALID,0,VALID,98.838,VALID,0.0339617,VALID,20.2983,VALID,85,VALID,0.0130859,
2001-09-07, 02:00:00,VALID,917.977,VALID,0,VALID,98.8355,VALID,0.0509425,VALID,20.2953,VALID,85,VALID,0.117393,
2001-09-07, 02:01:00,VALID,917.997,VALID,0,VALID,98.8533,VALID,0.0339617,VALID,20.2851,VALID,85,VALID,0,
2001-09-07, 02:02:00,VALID,918.019,VALID,0,VALID,98.8406,VALID,0.0509425,VALID,20.2824,VALID,97,VALID,0.0304054,
2001-09-07, 02:03:00,VALID,918.041,VALID,0,VALID,98.8673,VALID,0.0509425,VALID,20.2851,VALID,109,VALID,0.513091,
2001-09-07, 02:04:00,VALID,918.049,VALID,0,VALID,98.8901,VALID,0.0339617,VALID,20.2956,VALID,87,VALID,0.0886949,
2001-09-07, 02:05:00,VALID,918.069,VALID,0,VALID,98.8851,VALID,0.0169808,VALID,20.305,VALID,85,VALID,0.316016,
2001-09-07, 02:06:00,VALID,918.073,VALID,0,VALID,98.8978,VALID,0,VALID,20.305,VALID,68,VALID,0.00961538,
2001-09-07, 02:07:00,VALID,918.064,VALID,0,VALID,98.9118,VALID,0.0169808,VALID,20.318,VALID,62,VALID,0.260485,
2001-09-07, 02:08:00,VALID,918.055,VALID,0,VALID,98.9118,VALID,0,VALID,20.308,VALID,61,VALID,0.197574,
2001-09-07, 02:09:00,VALID,918.046,VALID,0,VALID,98.9029,VALID,0.0509425,VALID,20.3018,VALID,68,VALID,0.440234,
2001-09-07, 02:10:00,VALID,918.038,VALID,0,VALID,98.8711,VALID,0,VALID,20.2827,VALID,64,VALID,0.439556,
2001-09-07, 02:11:00,VALID,918.031,VALID,0,VALID,98.8774,VALID,0,VALID,20.2762,VALID,69,VALID,0.10588,
2001-09-07, 02:12:00,VALID,918.033,VALID,0,VALID,98.8812,VALID,0.0169808,VALID,20.2571,VALID,48,VALID,0.228041,
2001-09-07, 02:13:00,VALID,918.03,VALID,0,VALID,98.9003,VALID,0.0169808,VALID,20.2598,VALID,65,VALID,0.408637,
2001-09-07, 02:14:00,VALID,918.038,VALID,0,VALID,98.8698,VALID,0.0339617,VALID,20.2399,VALID,84,VALID,0.496311,
2001-09-07, 02:15:00,VALID,918.045,VALID,0,VALID,98.8952,VALID,0.0509425,VALID,20.2402,VALID,60,VALID,0.492378,
2001-09-07, 02:16:00,VALID,918.044,VALID,0,VALID,98.8889,VALID,0.0339617,VALID,20.2429,VALID,76,VALID,0.386824,
2001-09-07, 02:17:00,VALID,918.041,VALID,0,VALID,98.8774,VALID,0,VALID,20.2337,VALID,73,VALID,0.407689,
2001-09-07, 02:18:00,VALID,918.041,VALID,0,VALID,98.9067,VALID,0.0339617,VALID,20.2367,VALID,66,VALID,0.474301,
2001-09-07, 02:19:00,VALID,918.032,VALID,0,VALID,98.9016,VALID,0.0339617,VALID,20.2364,VALID,70,VALID,0.549924,
2001-09-07, 02:20:00,VALID,918.008,VALID,0.2,VALID,98.8736,VALID,0.0339617,VALID,20.227,VALID,104,VALID,0.475123,
2001-09-07, 02:21:00,VALID,918.015,VALID,0,VALID,98.8952,VALID,0.0679233,VALID,20.2238,VALID,113,VALID,0.558388,
2001-09-07, 02:22:00,VALID,918.013,VALID,0,VALID,98.9054,VALID,0.0339617,VALID,20.2208,VALID,130,VALID,0.483941,
2001-09-07, 02:23:00,VALID,918.028,VALID,0,VALID,98.8851,VALID,0.0849042,VALID,20.217,VALID,120,VALID,0.789485,
2001-09-07, 02:24:00,VALID,918.041,VALID,0,VALID,98.8863,VALID,0.0509425,VALID,20.2046,VALID,117,VALID,0.762946,
2001-09-07, 02:25:00,VALID,918.037,VALID,0.2,VALID,98.8965,VALID,0.0679233,VALID,20.1979,VALID,121,VALID,0.651933,
2001-09-07, 02:26:00,VALID,918.038,VALID,0,VALID,98.9105,VALID,0.0169808,VALID,20.1917,VALID,110,VALID,0.820313,
2001-09-07, 02:27:00,VALID,918.034,VALID,0,VALID,98.9067,VALID,0.0509425,VALID,20.1785,VALID,119,VALID,0.731908,
2001-09-07, 02:28:00,VALID,918.026,VALID,0,VALID,98.9092,VALID,0.0679233,VALID,20.1853,VALID,136,VALID,0.451436,
2001-09-07, 02:29:00,VALID,918.017,VALID,0,VALID,98.9079,VALID,0.0509425,VALID,20.1723,VALID,121,VALID,0.716211,
2001-09-07, 02:30:00,VALID,918.025,VALID,0.2,VALID,98.8965,VALID,0,VALID,20.1564,VALID,128,VALID,0.801604,
2001-09-07, 02:31:00,VALID,918.039,VALID,0,VALID,98.913,VALID,-0.0169808,VALID,20.1475,VALID,111,VALID,0.684462,
2001-09-07, 02:32:00,VALID,918.055,VALID,0,VALID,98.9245,VALID,0,VALID,20.1306,VALID,106,VALID,0.475084,
2001-09-07, 02:33:00,VALID,918.085,VALID,0,VALID,98.9283,VALID,0,VALID,20.1343,VALID,98,VALID,0.431799,
2001-09-07, 02:34:00,VALID,918.113,VALID,0,VALID,98.9436,VALID,-0.0169808,VALID,20.144,VALID,72,VALID,0.779182,
2001-09-07, 02:35:00,VALID,918.135,VALID,0,VALID,98.9372,VALID,0,VALID,20.1376,VALID,83,VALID,0.981836,
2001-09-07, 02:36:00,VALID,918.145,VALID,0.2,VALID,98.9359,VALID,-0.0169808,VALID,20.1279,VALID,76,VALID,0.806691,
2001-09-07, 02:37:00,VALID,918.145,VALID,0,VALID,98.9296,VALID,0,VALID,20.1246,VALID,94,VALID,0.578947,
2001-09-07, 02:38:00,VALID,918.148,VALID,0,VALID,98.927,VALID,0,VALID,20.0948,VALID,105,VALID,0.801809,
2001-09-07, 02:39:00,VALID,918.122,VALID,0,VALID,98.9436,VALID,0.0169808,VALID,20.1085,VALID,131,VALID,0.567578,
2001-09-07, 02:40:00,VALID,918.115,VALID,0.2,VALID,98.9461,VALID,0,VALID,20.0916,VALID,136,VALID,0.709498,
2001-09-07, 02:41:00,VALID,918.097,VALID,0,VALID,98.9601,VALID,0,VALID,20.0854,VALID,109,VALID,0.300576,
2001-09-07, 02:42:00,VALID,918.078,VALID,0,VALID,98.9664,VALID,0,VALID,20.0918,VALID,114,VALID,0.226985,
2001-09-07, 02:43:00,VALID,918.059,VALID,0,VALID,98.9677,VALID,0,VALID,20.1023,VALID,146,VALID,0.47895,
2001-09-07, 02:44:00,VALID,918.023,VALID,0.2,VALID,98.9499,VALID,0,VALID,20.0923,VALID,110,VALID,0.610677,
2001-09-07, 02:45:00,VALID,918.014,VALID,0,VALID,98.9563,VALID,-0.0169808,VALID,20.0729,VALID,136,VALID,0.792874,
2001-09-07, 02:46:00,VALID,917.99,VALID,0,VALID,98.9677,VALID,-0.0169808,VALID,20.0565,VALID,156,VALID,0.84016,
2001-09-07, 02:47:00,VALID,917.97,VALID,0,VALID,98.9779,VALID,0.0169808,VALID,20.0598,VALID,130,VALID,0.41509,
2001-09-07, 02:48:00,VALID,917.963,VALID,0,VALID,99.002,VALID,0,VALID,20.063,VALID,141,VALID,0.522821,
2001-09-07, 02:49:00,VALID,917.96,VALID,0,VALID,98.9893,VALID,0,VALID,20.0665,VALID,133,VALID,0.665777,
2001-09-07, 02:50:00,VALID,917.957,VALID,0,VALID,98.9919,VALID,0,VALID,20.07,VALID,134,VALID,0.427426,
2001-09-07, 02:51:00,VALID,917.936,VALID,0,VALID,99.002,VALID,0,VALID,20.0667,VALID,118,VALID,0.608347,
2001-09-07, 02:52:00,VALID,917.915,VALID,0,VALID,99.0135,VALID,0,VALID,20.0697,VALID,164,VALID,0.312717,
2001-09-07, 02:53:00,VALID,917.888,VALID,0,VALID,99.0008,VALID,0,VALID,20.0598,VALID,150,VALID,0.942145,
2001-09-07, 02:54:00,VALID,917.858,VALID,0,VALID,98.9855,VALID,-0.0169808,VALID,20.0474,VALID,154,VALID,0.751339,
2001-09-07, 02:55:00,VALID,917.852,VALID,0,VALID,98.9957,VALID,-0.0169808,VALID,20.0342,VALID,159,VALID,0.994038,
2001-09-07, 02:56:00,VALID,917.855,VALID,0,VALID,98.997,VALID,0,VALID,20.0205,VALID,150,VALID,0.946579,
2001-09-07, 02:57:00,VALID,917.86,VALID,0,VALID,99.0071,VALID,0,VALID,20.018,VALID,142,VALID,0.824836,
2001-09-07, 02:58:00,VALID,917.875,VALID,0,VALID,99.0046,VALID,0,VALID,20.0148,VALID,142,VALID,0.829814,
2001-09-07, 02:59:00,VALID,917.884,VALID,0,VALID,99.0135,VALID,0,VALID,20.0111,VALID,142,VALID,0.869727,
2001-09-07, 03:00:00,VALID,917.902,VALID,0,VALID,99.0109,VALID,0.0169808,VALID,20.0083,VALID,143,VALID,1.17825,
2001-09-07, 03:01:00,VALID,917.918,VALID,0,VALID,99.016,VALID,0,VALID,19.9954,VALID,144,VALID,1.04058,
2001-09-07, 03:02:00,VALID,917.929,VALID,0,VALID,99.0237,VALID,0,VALID,19.9954,VALID,151,VALID,0.781672,
2001-09-07, 03:03:00,VALID,917.924,VALID,0,VALID,99.0287,VALID,-0.0509425,VALID,19.9817,VALID,145,VALID,1.0076,
2001-09-07, 03:04:00,VALID,917.926,VALID,0,VALID,99.0287,VALID,0.0169808,VALID,19.986,VALID,151,VALID,0.981618,
2001-09-07, 03:05:00,VALID,917.919,VALID,0,VALID,99.0122,VALID,-0.0169808,VALID,19.9726,VALID,151,VALID,1.22285,
2001-09-07, 03:06:00,VALID,917.905,VALID,0,VALID,99.0186,VALID,0,VALID,19.9668,VALID,149,VALID,1.24339,
2001-09-07, 03:07:00,VALID,917.885,VALID,0,VALID,99.0262,VALID,0,VALID,19.9604,VALID,151,VALID,1.03865,
2001-09-07, 03:08:00,VALID,917.875,VALID,0,VALID,99.0249,VALID,0,VALID,19.944,VALID,148,VALID,1.20539,
2001-09-07, 03:09:00,VALID,917.842,VALID,0.2,VALID,99.0097,VALID,-0.0169808,VALID,19.9375,VALID,155,VALID,1.13262,
2001-09-07, 03:10:00,VALID,917.836,VALID,0,VALID,98.9804,VALID,0,VALID,19.905,VALID,148,VALID,1.54502,
2001-09-07, 03:11:00,VALID,917.822,VALID,0,VALID,98.9957,VALID,0,VALID,19.8821,VALID,149,VALID,0.932977,
2001-09-07, 03:12:00,VALID,917.812,VALID,0,VALID,98.9982,VALID,0,VALID,19.8694,VALID,144,VALID,0.897804,
2001-09-07, 03:13:00,VALID,917.796,VALID,0,VALID,98.9982,VALID,0.0169808,VALID,19.8563,VALID,150,VALID,0.930122,
2001-09-07, 03:14:00,VALID,917.796,VALID,0,VALID,99.0109,VALID,0,VALID,19.8528,VALID,123,VALID,0.599826,
2001-09-07, 03:15:00,VALID,917.785,VALID,0,VALID,99.0198,VALID,0,VALID,19.8463,VALID,128,VALID,0.667111,
2001-09-07, 03:16:00,VALID,917.76,VALID,0,VALID,99.0211,VALID,-0.0509425,VALID,19.8347,VALID,131,VALID,0.717061,
2001-09-07, 03:17:00,VALID,917.747,VALID,0,VALID,99.0122,VALID,-0.0509425,VALID,19.8344,VALID,116,VALID,0.802632,
2001-09-07, 03:18:00,VALID,917.742,VALID,0,VALID,98.997,VALID,-0.0509425,VALID,19.8252,VALID,95,VALID,0.658306,
2001-09-07, 03:19:00,VALID,917.739,VALID,0,VALID,99.0033,VALID,-0.0509425,VALID,19.8187,VALID,127,VALID,0.592035,
2001-09-07, 03:20:00,VALID,917.74,VALID,0,VALID,98.9982,VALID,-0.0339617,VALID,19.8091,VALID,134,VALID,0.424137,
2001-09-07, 03:21:00,VALID,917.732,VALID,0,VALID,98.9957,VALID,-0.101885,VALID,19.7999,VALID,153,VALID,0.258635,
2001-09-07, 03:22:00,VALID,917.721,VALID,0,VALID,98.9944,VALID,-0.0509425,VALID,19.7897,VALID,102,VALID,0.238932,
2001-09-07, 03:23:00,VALID,917.713,VALID,0,VALID,98.9868,VALID,-0.0679233,VALID,19.7703,VALID,124,VALID,0.319679,
2001-09-07, 03:24:00,VALID,917.7,VALID,0,VALID,98.983,VALID,-0.0509425,VALID,19.7606,VALID,109,VALID,0.523214,
2001-09-07, 03:25:00,VALID,917.71,VALID,0,VALID,98.983,VALID,-0.0509425,VALID,19.7546,VALID,106,VALID,0.63898,
2001-09-07, 03:26:00,VALID,917.739,VALID,0,VALID,98.9753,VALID,-0.0509425,VALID,19.7377,VALID,127,VALID,1.00929,
2001-09-07, 03:27:00,VALID,917.778,VALID,0,VALID,98.9766,VALID,-0.0169808,VALID,19.7343,VALID,150,VALID,0.544202,
2001-09-07, 03:28:00,VALID,917.805,VALID,0,VALID,98.9957,VALID,-0.0679233,VALID,19.7449,VALID,148,VALID,0.779983,
2001-09-07, 03:29:00,VALID,917.826,VALID,0,VALID,98.9906,VALID,-0.0509425,VALID,19.7385,VALID,142,VALID,0.0892578,
2001-09-07, 03:30:00,VALID,917.818,VALID,0,VALID,98.9957,VALID,-0.0339617,VALID,19.7472,VALID,197,VALID,0.0859375,
2001-09-07, 03:31:00,VALID,917.79,VALID,0,VALID,98.9881,VALID,0.0169808,VALID,19.7338,VALID,214,VALID,0.0824653,
2001-09-07, 03:32:00,VALID,917.747,VALID,0,VALID,98.9855,VALID,0.0509425,VALID,19.7335,VALID,242,VALID,0.190878,
2001-09-07, 03:33:00,VALID,917.752,VALID,0,VALID,98.9728,VALID,0.0679233,VALID,19.7169,VALID,235,VALID,0.244721,
2001-09-07, 03:34:00,VALID,917.779,VALID,0,VALID,98.9639,VALID,0.0679233,VALID,19.7136,VALID,194,VALID,0.146829,